contact: severine.martini@mio.osupytheas.fr, dominique.lefevre@mio.osupytheas.fr
Project:EMSO Ligure-ouest http://www.emso-fr.org/EMSO-France
Sensor Microcat Sea-Bird SBE37 SMP,  Serial 57510 
DOI : "https://doi.org/10.17882/97948" 
Title:EMSO Ligure Ouest : Data Bathybot capteur Microcat - deploiement 2023-04-28
Datetime,Profondeur,Latitude,Longitude,Temperature,Conductivite,Pression,Salinite
time,m,degree_north,degree_east,degree_C,S/m,db,PSU 
2023-10-27T00:00:50,2420,42.8014,5.9826,13.2990,4.43148,2453.582,36.9087
2023-10-27T00:03:49,2420,42.8014,5.9826,13.2995,4.43157,2453.559,36.9091
2023-10-27T00:06:49,2420,42.8014,5.9826,13.2988,4.43130,2453.582,36.9072
2023-10-27T00:09:49,2420,42.8014,5.9826,13.2982,4.43146,2453.582,36.9093
2023-10-27T00:12:49,2420,42.8014,5.9826,13.2980,4.43135,2453.604,36.9084
2023-10-27T00:15:49,2420,42.8014,5.9826,13.2991,4.43193,2453.582,36.9128
2023-10-27T00:18:49,2420,42.8014,5.9826,13.2979,4.43177,2453.559,36.9125
2023-10-27T00:21:49,2420,42.8014,5.9826,13.2982,4.43113,2453.559,36.9063
2023-10-27T00:24:49,2420,42.8014,5.9826,13.2982,4.43111,2453.559,36.9060
2023-10-27T00:27:49,2420,42.8014,5.9826,13.2982,4.43090,2453.596,36.9040
2023-10-27T00:30:49,2420,42.8014,5.9826,13.3000,4.43076,2453.567,36.9010
2023-10-27T00:33:49,2420,42.8014,5.9826,13.2983,4.42877,2453.559,36.8840
2023-10-27T00:36:49,2420,42.8014,5.9826,13.2977,4.42843,2453.559,36.8814
2023-10-27T00:39:49,2420,42.8014,5.9826,13.2980,4.42857,2453.559,36.8824
2023-10-27T00:42:49,2420,42.8014,5.9826,13.2978,4.42863,2453.582,36.8832
2023-10-27T00:45:49,2420,42.8014,5.9826,13.2978,4.42909,2453.574,36.8874
2023-10-27T00:48:49,2420,42.8014,5.9826,13.2985,4.42875,2453.559,36.8836
2023-10-27T00:51:49,2420,42.8014,5.9826,13.2981,4.42854,2453.596,36.8820
2023-10-27T00:54:49,2420,42.8014,5.9826,13.2987,4.42838,2453.559,36.8800
2023-10-27T00:57:49,2420,42.8014,5.9826,13.2980,4.42841,2453.582,36.8809
2023-10-27T01:00:49,2420,42.8014,5.9826,13.2978,4.42842,2453.574,36.8811
2023-10-27T01:03:49,2420,42.8014,5.9826,13.2984,4.42833,2453.582,36.8798
2023-10-27T01:06:49,2420,42.8014,5.9826,13.2984,4.42897,2453.582,36.8858
2023-10-27T01:09:49,2420,42.8014,5.9826,13.2985,4.42837,2453.582,36.8800
2023-10-27T01:12:49,2420,42.8014,5.9826,13.2984,4.42818,2453.582,36.8783
2023-10-27T01:15:49,2420,42.8014,5.9826,13.2986,4.42806,2453.604,36.8770
2023-10-27T01:18:49,2420,42.8014,5.9826,13.2986,4.42841,2453.590,36.8803
2023-10-27T01:21:49,2420,42.8014,5.9826,13.2991,4.42822,2453.627,36.8781
2023-10-27T01:24:49,2420,42.8014,5.9826,13.2980,4.42891,2453.604,36.8855
2023-10-27T01:27:49,2420,42.8014,5.9826,13.2985,4.42841,2453.559,36.8805
2023-10-27T01:30:49,2420,42.8014,5.9826,13.2981,4.42819,2453.604,36.8787
2023-10-27T01:33:49,2420,42.8014,5.9826,13.2978,4.42814,2453.604,36.8785
2023-10-27T01:36:49,2420,42.8014,5.9826,13.2979,4.42857,2453.604,36.8824
2023-10-27T01:39:49,2420,42.8014,5.9826,13.2981,4.42783,2453.604,36.8753
2023-10-27T01:42:49,2420,42.8014,5.9826,13.2979,4.42797,2453.604,36.8768
2023-10-27T01:45:49,2420,42.8014,5.9826,13.2978,4.42786,2453.619,36.8759
2023-10-27T01:48:49,2420,42.8014,5.9826,13.2984,4.42814,2453.604,36.8780
2023-10-27T01:51:49,2420,42.8014,5.9826,13.2987,4.42808,2453.590,36.8771
2023-10-27T01:54:49,2420,42.8014,5.9826,13.2986,4.42801,2453.604,36.8765
2023-10-27T01:57:49,2420,42.8014,5.9826,13.2983,4.42843,2453.590,36.8808
2023-10-27T02:00:49,2420,42.8014,5.9826,13.2977,4.42786,2453.627,36.8760
2023-10-27T02:03:49,2420,42.8014,5.9826,13.2981,4.42778,2453.567,36.8749
2023-10-27T02:06:49,2420,42.8014,5.9826,13.2983,4.42764,2453.604,36.8734
2023-10-27T02:09:49,2420,42.8014,5.9826,13.2985,4.42778,2453.604,36.8745
2023-10-27T02:12:49,2420,42.8014,5.9826,13.2981,4.42828,2453.590,36.8796
2023-10-27T02:15:49,2420,42.8014,5.9826,13.2981,4.42763,2453.627,36.8734
2023-10-27T02:18:49,2420,42.8014,5.9826,13.2982,4.42776,2453.582,36.8746
2023-10-27T02:21:49,2420,42.8014,5.9826,13.2982,4.42758,2453.604,36.8729
2023-10-27T02:24:49,2420,42.8014,5.9826,13.2988,4.42810,2453.649,36.8772
2023-10-27T02:27:49,2420,42.8014,5.9826,13.2976,4.42748,2453.604,36.8725
2023-10-27T02:30:49,2420,42.8014,5.9826,13.2993,4.42717,2453.649,36.8680
2023-10-27T02:33:49,2420,42.8014,5.9826,13.2996,4.42723,2453.627,36.8683
2023-10-27T02:36:49,2420,42.8014,5.9826,13.2979,4.42723,2453.649,36.8699
2023-10-27T02:39:49,2420,42.8014,5.9826,13.2982,4.42763,2453.635,36.8734
2023-10-27T02:42:49,2420,42.8014,5.9826,13.2983,4.42766,2453.709,36.8735
2023-10-27T02:45:49,2420,42.8014,5.9826,13.2993,4.42771,2453.657,36.8731
2023-10-27T02:48:49,2420,42.8014,5.9826,13.2982,4.42739,2453.649,36.8711
2023-10-27T02:51:49,2420,42.8014,5.9826,13.2981,4.42705,2453.672,36.8680
2023-10-27T02:54:49,2420,42.8014,5.9826,13.2986,4.42697,2453.672,36.8668
2023-10-27T02:57:49,2420,42.8014,5.9826,13.2979,4.42688,2453.649,36.8667
2023-10-27T03:00:49,2420,42.8014,5.9826,13.2983,4.42727,2453.649,36.8699
2023-10-27T03:03:49,2420,42.8014,5.9826,13.2984,4.42684,2453.672,36.8657
2023-10-27T03:06:49,2420,42.8014,5.9826,13.2982,4.42694,2453.649,36.8669
2023-10-27T03:09:49,2420,42.8014,5.9826,13.2983,4.42716,2453.657,36.8688
2023-10-27T03:12:49,2420,42.8014,5.9826,13.2982,4.42657,2453.672,36.8634
2023-10-27T03:15:49,2420,42.8014,5.9826,13.2982,4.42654,2453.672,36.8631
2023-10-27T03:18:49,2420,42.8014,5.9826,13.2981,4.42711,2453.687,36.8685
2023-10-27T03:21:50,2420,42.8014,5.9826,13.2982,4.42675,2453.672,36.8651
2023-10-27T03:24:49,2420,42.8014,5.9826,13.2988,4.42626,2453.649,36.8600
2023-10-27T03:27:49,2420,42.8014,5.9826,13.2991,4.42628,2453.695,36.8598
2023-10-27T03:30:49,2420,42.8014,5.9826,13.2979,4.42611,2453.695,36.8593
2023-10-27T03:33:49,2420,42.8014,5.9826,13.2982,4.42606,2453.702,36.8586
2023-10-27T03:36:49,2420,42.8014,5.9826,13.2985,4.42602,2453.695,36.8580
2023-10-27T03:39:49,2420,42.8014,5.9826,13.2982,4.42601,2453.709,36.8582
2023-10-27T03:42:49,2420,42.8014,5.9826,13.2981,4.42594,2453.695,36.8576
2023-10-27T03:45:49,2420,42.8014,5.9826,13.2988,4.42578,2453.695,36.8554
2023-10-27T03:48:49,2420,42.8014,5.9826,13.2991,4.42534,2453.672,36.8511
2023-10-27T03:51:49,2420,42.8014,5.9826,13.2982,4.42549,2453.680,36.8533
2023-10-27T03:54:49,2420,42.8014,5.9826,13.2993,4.42550,2453.695,36.8523
2023-10-27T03:57:49,2420,42.8014,5.9826,13.2982,4.42536,2453.717,36.8521
2023-10-27T04:00:49,2420,42.8014,5.9826,13.2989,4.42549,2453.672,36.8526
2023-10-27T04:03:49,2420,42.8014,5.9826,13.2991,4.42500,2453.695,36.8479
2023-10-27T04:06:49,2420,42.8014,5.9826,13.2984,4.42531,2453.725,36.8514
2023-10-27T04:09:49,2420,42.8014,5.9826,13.2983,4.42510,2453.695,36.8495
2023-10-27T04:12:49,2420,42.8014,5.9826,13.2988,4.42521,2453.702,36.8501
2023-10-27T04:15:49,2420,42.8014,5.9826,13.2991,4.42526,2453.762,36.8502
2023-10-27T04:18:49,2420,42.8014,5.9826,13.2985,4.42507,2453.740,36.8490
2023-10-27T04:21:49,2420,42.8014,5.9826,13.2989,4.42475,2453.725,36.8457
2023-10-27T04:24:49,2420,42.8014,5.9826,13.2983,4.42507,2453.717,36.8492
2023-10-27T04:27:49,2420,42.8014,5.9826,13.2985,4.42505,2453.762,36.8489
2023-10-27T04:30:49,2420,42.8014,5.9826,13.2982,4.42498,2453.717,36.8485
2023-10-27T04:33:49,2420,42.8014,5.9826,13.2983,4.42437,2453.717,36.8426
2023-10-27T04:36:49,2420,42.8014,5.9826,13.2987,4.42455,2453.740,36.8440
2023-10-27T04:39:49,2420,42.8014,5.9826,13.2987,4.42440,2453.740,36.8425
2023-10-27T04:42:49,2420,42.8014,5.9826,13.2983,4.42466,2453.725,36.8454
2023-10-27T04:45:49,2420,42.8014,5.9826,13.2983,4.42449,2453.740,36.8438
2023-10-27T04:48:49,2420,42.8014,5.9826,13.2981,4.42422,2453.785,36.8414
2023-10-27T04:51:49,2420,42.8014,5.9826,13.2982,4.42424,2453.762,36.8416
2023-10-27T04:54:49,2420,42.8014,5.9826,13.2984,4.42422,2453.762,36.8412
2023-10-27T04:57:49,2420,42.8014,5.9826,13.2994,4.42408,2453.762,36.8389
2023-10-27T05:00:49,2420,42.8014,5.9826,13.2979,4.42400,2453.762,36.8396
2023-10-27T05:03:49,2420,42.8014,5.9826,13.2984,4.42416,2453.762,36.8406
2023-10-27T05:06:49,2420,42.8014,5.9826,13.2982,4.42379,2453.777,36.8373
2023-10-27T05:09:49,2420,42.8014,5.9826,13.2976,4.42365,2453.770,36.8365
2023-10-27T05:12:49,2420,42.8014,5.9826,13.2979,4.42350,2453.762,36.8349
2023-10-27T05:15:49,2420,42.8014,5.9826,13.2986,4.42344,2453.762,36.8337
2023-10-27T05:18:49,2420,42.8014,5.9826,13.2983,4.42329,2453.785,36.8325
2023-10-27T05:21:49,2420,42.8014,5.9826,13.2980,4.42319,2453.785,36.8318
2023-10-27T05:24:49,2420,42.8014,5.9826,13.2982,4.42323,2453.762,36.8321
2023-10-27T05:27:49,2420,42.8014,5.9826,13.2986,4.42327,2453.748,36.8320
2023-10-27T05:30:49,2420,42.8014,5.9826,13.2989,4.42320,2453.740,36.8311
2023-10-27T05:33:49,2420,42.8014,5.9826,13.2983,4.42313,2453.762,36.8310
2023-10-27T05:36:49,2420,42.8014,5.9826,13.2981,4.42355,2453.762,36.8351
2023-10-27T05:39:49,2420,42.8014,5.9826,13.2984,4.42317,2453.762,36.8313
2023-10-27T05:42:49,2420,42.8014,5.9826,13.2997,4.42299,2453.762,36.8284
2023-10-27T05:45:49,2420,42.8014,5.9826,13.2980,4.42299,2453.748,36.8300
2023-10-27T05:48:49,2420,42.8014,5.9826,13.2979,4.42289,2453.762,36.8291
2023-10-27T05:51:49,2420,42.8014,5.9826,13.2982,4.42221,2453.762,36.8225
2023-10-27T05:54:49,2420,42.8014,5.9826,13.2979,4.42238,2453.740,36.8244
2023-10-27T05:57:49,2420,42.8014,5.9826,13.2980,4.42212,2453.740,36.8218
2023-10-27T06:00:49,2420,42.8014,5.9826,13.2982,4.42160,2453.762,36.8168
2023-10-27T06:03:49,2420,42.8014,5.9826,13.2986,4.42099,2453.762,36.8107
2023-10-27T06:06:49,2420,42.8014,5.9826,13.2979,4.42087,2453.762,36.8102
2023-10-27T06:09:49,2420,42.8014,5.9826,13.2990,4.42088,2453.762,36.8093
2023-10-27T06:12:49,2420,42.8014,5.9826,13.2990,4.42052,2453.754,36.8059
2023-10-27T06:15:49,2420,42.8014,5.9826,13.2979,4.42005,2453.762,36.8025
2023-10-27T06:18:49,2420,42.8014,5.9826,13.2989,4.42030,2453.740,36.8039
2023-10-27T06:21:49,2420,42.8014,5.9826,13.2978,4.42011,2453.762,36.8031
2023-10-27T06:24:49,2420,42.8014,5.9826,13.2989,4.41978,2453.740,36.7990
2023-10-27T06:27:49,2420,42.8014,5.9826,13.2985,4.41973,2453.762,36.7990
2023-10-27T06:30:49,2420,42.8014,5.9826,13.2984,4.41963,2453.785,36.7981
2023-10-27T06:33:49,2420,42.8014,5.9826,13.2977,4.41937,2453.800,36.7964
2023-10-27T06:36:49,2420,42.8014,5.9826,13.2981,4.41959,2453.762,36.7980
2023-10-27T06:39:49,2420,42.8014,5.9826,13.2978,4.41977,2453.785,36.8001
2023-10-27T06:42:49,2420,42.8014,5.9826,13.2979,4.41915,2453.785,36.7941
2023-10-27T06:45:49,2420,42.8014,5.9826,13.2975,4.41951,2453.770,36.7979
2023-10-27T06:48:49,2420,42.8014,5.9826,13.2986,4.41948,2453.740,36.7964
2023-10-27T06:51:49,2420,42.8014,5.9826,13.2982,4.41927,2453.762,36.7949
2023-10-27T06:54:50,2420,42.8014,5.9826,13.2986,4.41933,2453.777,36.7951
2023-10-27T06:57:49,2420,42.8014,5.9826,13.3019,4.41948,2453.762,36.7933
2023-10-27T07:00:49,2420,42.8014,5.9826,13.2988,4.41919,2453.732,36.7937
2023-10-27T07:03:49,2420,42.8014,5.9826,13.2987,4.41925,2453.762,36.7943
2023-10-27T07:06:49,2420,42.8014,5.9826,13.2983,4.41923,2453.762,36.7945
2023-10-27T07:09:49,2420,42.8014,5.9826,13.2990,4.41891,2453.725,36.7908
2023-10-27T07:12:49,2420,42.8014,5.9826,13.2983,4.41902,2453.762,36.7925
2023-10-27T07:15:49,2420,42.8014,5.9826,13.3004,4.41893,2453.740,36.7897
2023-10-27T07:18:49,2420,42.8014,5.9826,13.3014,4.41928,2453.740,36.7920
2023-10-27T07:21:49,2420,42.8014,5.9826,13.2989,4.41877,2453.740,36.7896
2023-10-27T07:24:49,2420,42.8014,5.9826,13.3001,4.41891,2453.762,36.7898
2023-10-27T07:27:49,2420,42.8014,5.9826,13.2982,4.41862,2453.725,36.7889
2023-10-27T07:30:49,2420,42.8014,5.9826,13.2982,4.41865,2453.754,36.7892
2023-10-27T07:33:49,2420,42.8014,5.9826,13.2979,4.41873,2453.740,36.7902
2023-10-27T07:36:49,2420,42.8014,5.9826,13.2993,4.41865,2453.717,36.7880
2023-10-27T07:39:49,2420,42.8014,5.9826,13.2978,4.41846,2453.762,36.7878
2023-10-27T07:42:49,2420,42.8014,5.9826,13.2980,4.41838,2453.740,36.7868
2023-10-27T07:45:49,2420,42.8014,5.9826,13.2982,4.41836,2453.762,36.7864
2023-10-27T07:48:49,2420,42.8014,5.9826,13.2987,4.41875,2453.762,36.7896
2023-10-27T07:51:49,2420,42.8014,5.9826,13.2991,4.41863,2453.762,36.7881
2023-10-27T07:54:49,2420,42.8014,5.9826,13.2988,4.41852,2453.740,36.7874
2023-10-27T07:57:49,2420,42.8014,5.9826,13.2980,4.41831,2453.740,36.7861
2023-10-27T08:00:49,2420,42.8014,5.9826,13.2986,4.41822,2453.725,36.7848
2023-10-27T08:03:49,2420,42.8014,5.9826,13.2984,4.41790,2453.702,36.7820
2023-10-27T08:06:49,2420,42.8014,5.9826,13.2996,4.41829,2453.709,36.7845
2023-10-27T08:09:49,2420,42.8014,5.9826,13.2988,4.41785,2453.748,36.7810
2023-10-27T08:12:49,2420,42.8014,5.9826,13.2990,4.41776,2453.748,36.7800
2023-10-27T08:15:49,2420,42.8014,5.9826,13.2991,4.41756,2453.740,36.7781
2023-10-27T08:18:49,2420,42.8014,5.9826,13.3010,4.41765,2453.695,36.7772
2023-10-27T08:21:49,2420,42.8014,5.9826,13.3002,4.41739,2453.717,36.7754
2023-10-27T08:24:49,2420,42.8014,5.9826,13.3004,4.41774,2453.717,36.7785
2023-10-27T08:27:49,2420,42.8014,5.9826,13.2981,4.41685,2453.717,36.7724
2023-10-27T08:30:49,2420,42.8014,5.9826,13.2984,4.41661,2453.762,36.7698
2023-10-27T08:33:49,2420,42.8014,5.9826,13.2990,4.41623,2453.740,36.7657
2023-10-27T08:36:49,2420,42.8014,5.9826,13.2979,4.41598,2453.740,36.7643
2023-10-27T08:39:49,2420,42.8014,5.9826,13.2984,4.41640,2453.717,36.7678
2023-10-27T08:42:49,2420,42.8014,5.9826,13.2995,4.41595,2453.717,36.7626
2023-10-27T08:45:49,2420,42.8014,5.9826,13.2982,4.41612,2453.695,36.7654
2023-10-27T08:48:49,2420,42.8014,5.9826,13.2986,4.41602,2453.695,36.7641
2023-10-27T08:51:49,2420,42.8014,5.9826,13.2994,4.41589,2453.680,36.7621
2023-10-27T08:54:49,2420,42.8014,5.9826,13.3008,4.41578,2453.717,36.7598
2023-10-27T08:57:49,2420,42.8014,5.9826,13.2982,4.41556,2453.695,36.7602
2023-10-27T09:00:50,2420,42.8014,5.9826,13.2986,4.41546,2453.680,36.7589
2023-10-27T09:03:49,2420,42.8014,5.9826,13.2979,4.41524,2453.672,36.7574
2023-10-27T09:06:49,2420,42.8014,5.9826,13.2998,4.41537,2453.702,36.7568
2023-10-27T09:09:49,2420,42.8014,5.9826,13.2996,4.41522,2453.695,36.7557
2023-10-27T09:12:49,2420,42.8014,5.9826,13.2996,4.41502,2453.657,36.7538
2023-10-27T09:15:49,2420,42.8014,5.9826,13.2987,4.41474,2453.672,36.7521
2023-10-27T09:18:49,2420,42.8014,5.9826,13.2985,4.41438,2453.717,36.7488
2023-10-27T09:21:49,2420,42.8014,5.9826,13.2985,4.41402,2453.672,36.7455
2023-10-27T09:24:49,2420,42.8014,5.9826,13.2985,4.41356,2453.672,36.7412
2023-10-27T09:27:49,2420,42.8014,5.9826,13.2983,4.41316,2453.672,36.7376
2023-10-27T09:30:49,2420,42.8014,5.9826,13.2991,4.41313,2453.672,36.7366
2023-10-27T09:33:49,2420,42.8014,5.9826,13.2998,4.41333,2453.687,36.7378
2023-10-27T09:36:49,2420,42.8014,5.9826,13.2986,4.41340,2453.672,36.7396
2023-10-27T09:39:49,2420,42.8014,5.9826,13.2991,4.41329,2453.680,36.7381
2023-10-27T09:42:49,2420,42.8014,5.9826,13.2987,4.41313,2453.649,36.7369
2023-10-27T09:45:49,2420,42.8014,5.9826,13.2996,4.41284,2453.695,36.7334
2023-10-27T09:48:49,2420,42.8014,5.9826,13.2981,4.41263,2453.649,36.7328
2023-10-27T09:51:49,2420,42.8014,5.9826,13.2985,4.41264,2453.649,36.7326
2023-10-27T09:54:49,2420,42.8014,5.9826,13.2984,4.41237,2453.695,36.7301
2023-10-27T09:57:49,2420,42.8014,5.9826,13.2985,4.41219,2453.635,36.7284
2023-10-27T10:00:49,2420,42.8014,5.9826,13.2985,4.41187,2453.657,36.7254
2023-10-27T10:03:49,2420,42.8014,5.9826,13.2985,4.41177,2453.649,36.7244
2023-10-27T10:06:49,2420,42.8014,5.9826,13.2981,4.41140,2453.635,36.7213
2023-10-27T10:09:49,2420,42.8014,5.9826,13.2985,4.41107,2453.672,36.7179
2023-10-27T10:12:49,2420,42.8014,5.9826,13.2996,4.41099,2453.635,36.7160
2023-10-27T10:15:49,2420,42.8014,5.9826,13.2993,4.41071,2453.649,36.7137
2023-10-27T10:18:49,2420,42.8014,5.9826,13.2989,4.41060,2453.627,36.7131
2023-10-27T10:21:49,2420,42.8014,5.9826,13.2986,4.41017,2453.649,36.7094
2023-10-27T10:24:49,2420,42.8014,5.9826,13.2986,4.41009,2453.649,36.7086
2023-10-27T10:27:49,2420,42.8014,5.9826,13.2986,4.40989,2453.649,36.7067
2023-10-27T10:30:49,2420,42.8014,5.9826,13.2988,4.40987,2453.641,36.7063
2023-10-27T10:33:49,2420,42.8014,5.9826,13.2987,4.40937,2453.649,36.7017
2023-10-27T10:36:49,2420,42.8014,5.9826,13.2982,4.40933,2453.641,36.7018
2023-10-27T10:39:49,2420,42.8014,5.9826,13.2981,4.40911,2453.649,36.6998
2023-10-27T10:42:49,2420,42.8014,5.9826,13.2984,4.40903,2453.627,36.6988
2023-10-27T10:45:49,2420,42.8014,5.9826,13.2982,4.40892,2453.604,36.6980
2023-10-27T10:48:49,2420,42.8014,5.9826,13.2988,4.40861,2453.627,36.6946
2023-10-27T10:51:49,2420,42.8014,5.9826,13.2987,4.40857,2453.627,36.6942
2023-10-27T10:54:49,2420,42.8014,5.9826,13.2988,4.40858,2453.604,36.6943
2023-10-27T10:57:50,2420,42.8014,5.9826,13.2988,4.40842,2453.641,36.6928
2023-10-27T11:00:49,2420,42.8014,5.9826,13.2986,4.40859,2453.604,36.6945
2023-10-27T11:03:49,2420,42.8014,5.9826,13.2988,4.40896,2453.604,36.6978
2023-10-27T11:06:49,2420,42.8014,5.9826,13.2990,4.40836,2453.604,36.6920
2023-10-27T11:09:49,2420,42.8014,5.9826,13.2979,4.40820,2453.604,36.6915
2023-10-27T11:12:49,2420,42.8014,5.9826,13.2982,4.40805,2453.604,36.6899
2023-10-27T11:15:49,2420,42.8014,5.9826,13.2985,4.40792,2453.641,36.6884
2023-10-27T11:18:49,2420,42.8014,5.9826,13.2987,4.40770,2453.641,36.6861
2023-10-27T11:21:49,2420,42.8014,5.9826,13.2987,4.40748,2453.590,36.6840
2023-10-27T11:24:49,2420,42.8014,5.9826,13.2985,4.40744,2453.604,36.6838
2023-10-27T11:27:49,2420,42.8014,5.9826,13.2983,4.40718,2453.604,36.6816
2023-10-27T11:30:49,2420,42.8014,5.9826,13.2990,4.40709,2453.604,36.6801
2023-10-27T11:33:49,2420,42.8014,5.9826,13.2982,4.40682,2453.596,36.6784
2023-10-27T11:36:50,2420,42.8014,5.9826,13.2979,4.40669,2453.582,36.6773
2023-10-27T11:39:49,2420,42.8014,5.9826,13.2980,4.40659,2453.604,36.6764
2023-10-27T11:42:49,2420,42.8014,5.9826,13.2982,4.40634,2453.596,36.6738
2023-10-27T11:45:49,2420,42.8014,5.9826,13.2981,4.40618,2453.604,36.6724
2023-10-27T11:48:49,2420,42.8014,5.9826,13.2986,4.40624,2453.582,36.6726
2023-10-27T11:51:49,2420,42.8014,5.9826,13.2980,4.40597,2453.582,36.6705
2023-10-27T11:54:49,2420,42.8014,5.9826,13.2976,4.40576,2453.582,36.6690
2023-10-27T11:57:49,2420,42.8014,5.9826,13.2985,4.40567,2453.582,36.6673
2023-10-27T12:00:49,2420,42.8014,5.9826,13.2984,4.40554,2453.604,36.6661
2023-10-27T12:03:49,2420,42.8014,5.9826,13.2979,4.40523,2453.582,36.6638
2023-10-27T12:06:49,2420,42.8014,5.9826,13.2983,4.40516,2453.559,36.6627
2023-10-27T12:09:49,2420,42.8014,5.9826,13.2981,4.40507,2453.582,36.6621
2023-10-27T12:12:49,2420,42.8014,5.9826,13.2985,4.40473,2453.627,36.6585
2023-10-27T12:15:49,2420,42.8014,5.9826,13.2978,4.40468,2453.582,36.6587
2023-10-27T12:18:49,2420,42.8014,5.9826,13.2982,4.40637,2453.567,36.6741
2023-10-27T12:21:49,2420,42.8014,5.9826,13.2979,4.41483,2453.627,36.7536
2023-10-27T12:24:49,2420,42.8014,5.9826,13.2978,4.41592,2453.604,36.7640
2023-10-27T12:27:49,2420,42.8014,5.9826,13.2982,4.41505,2453.559,36.7555
2023-10-27T12:30:49,2420,42.8014,5.9826,13.2990,4.41391,2453.582,36.7440
2023-10-27T12:33:49,2420,42.8014,5.9826,13.2983,4.41294,2453.567,36.7356
2023-10-27T12:36:49,2420,42.8014,5.9826,13.2979,4.41221,2453.567,36.7291
2023-10-27T12:39:49,2420,42.8014,5.9826,13.2986,4.41180,2453.604,36.7246
2023-10-27T12:42:49,2420,42.8014,5.9826,13.2980,4.41152,2453.582,36.7226
2023-10-27T12:45:49,2420,42.8014,5.9826,13.2979,4.41043,2453.582,36.7125
2023-10-27T12:48:49,2420,42.8014,5.9826,13.2981,4.40900,2453.567,36.6989
2023-10-27T12:51:49,2420,42.8014,5.9826,13.2978,4.41076,2453.604,36.7156
2023-10-27T12:54:49,2420,42.8014,5.9826,13.2978,4.41116,2453.582,36.7194
2023-10-27T12:57:49,2420,42.8014,5.9826,13.2979,4.41277,2453.590,36.7344
2023-10-27T13:00:49,2420,42.8014,5.9826,13.2984,4.41229,2453.604,36.7294
2023-10-27T13:03:49,2420,42.8014,5.9826,13.2982,4.41204,2453.582,36.7273
2023-10-27T13:06:49,2420,42.8014,5.9826,13.2982,4.59957,2453.582,38.4912
2023-10-27T13:09:49,2420,42.8014,5.9826,13.2981,4.59949,2453.604,38.4906
2023-10-27T13:12:49,2420,42.8014,5.9826,13.2983,4.59954,2453.604,38.4908
2023-10-27T13:15:49,2420,42.8014,5.9826,13.2982,4.59957,2453.604,38.4912
2023-10-27T13:18:49,2420,42.8014,5.9826,13.2986,4.59961,2453.582,38.4912
2023-10-27T13:21:49,2420,42.8014,5.9826,13.2993,4.59948,2453.590,38.4893
2023-10-27T13:24:49,2420,42.8014,5.9826,13.2979,4.59948,2453.582,38.4907
2023-10-27T13:27:49,2420,42.8014,5.9826,13.2981,4.59951,2453.604,38.4907
2023-10-27T13:30:49,2420,42.8014,5.9826,13.2981,4.59948,2453.627,38.4905
2023-10-27T13:33:49,2420,42.8014,5.9826,13.2981,4.59959,2453.604,38.4915
2023-10-27T13:36:49,2420,42.8014,5.9826,13.2985,4.59947,2453.604,38.4900
2023-10-27T13:39:49,2420,42.8014,5.9826,13.2979,4.59955,2453.604,38.4913
2023-10-27T13:42:49,2420,42.8014,5.9826,13.2985,4.59952,2453.567,38.4905
2023-10-27T13:45:49,2420,42.8014,5.9826,13.2980,4.59957,2453.627,38.4914
2023-10-27T13:48:49,2420,42.8014,5.9826,13.2990,4.59952,2453.641,38.4899
2023-10-27T13:51:49,2420,42.8014,5.9826,13.2986,4.59957,2453.604,38.4909
2023-10-27T13:54:49,2420,42.8014,5.9826,13.2979,4.59951,2453.604,38.4909
2023-10-27T13:57:49,2420,42.8014,5.9826,13.2989,4.59960,2453.590,38.4908
2023-10-27T14:00:49,2420,42.8014,5.9826,13.2981,4.59951,2453.627,38.4907
2023-10-27T14:03:49,2420,42.8014,5.9826,13.2979,4.59960,2453.619,38.4918
2023-10-27T14:06:49,2420,42.8014,5.9826,13.2980,4.59951,2453.612,38.4909
2023-10-27T14:09:49,2420,42.8014,5.9826,13.2978,4.59949,2453.627,38.4908
2023-10-27T14:12:49,2420,42.8014,5.9826,13.2985,4.59951,2453.604,38.4904
2023-10-27T14:15:49,2420,42.8014,5.9826,13.2985,4.59949,2453.627,38.4902
2023-10-27T14:18:49,2420,42.8014,5.9826,13.2977,4.59952,2453.649,38.4913
2023-10-27T14:21:49,2420,42.8014,5.9826,13.2977,4.59957,2453.649,38.4918
2023-10-27T14:24:49,2420,42.8014,5.9826,13.2981,4.59956,2453.612,38.4912
2023-10-27T14:27:49,2420,42.8014,5.9826,13.2974,4.59953,2453.627,38.4916
2023-10-27T14:30:49,2420,42.8014,5.9826,13.2981,4.59955,2453.635,38.4911
2023-10-27T14:33:49,2420,42.8014,5.9826,13.2981,4.59953,2453.672,38.4909
2023-10-27T14:36:49,2420,42.8014,5.9826,13.2980,4.59957,2453.649,38.4914
2023-10-27T14:39:49,2420,42.8014,5.9826,13.2979,4.59954,2453.649,38.4911
2023-10-27T14:42:49,2420,42.8014,5.9826,13.2982,4.59955,2453.687,38.4910
2023-10-27T14:45:49,2420,42.8014,5.9826,13.2982,4.59959,2453.687,38.4914
2023-10-27T14:48:49,2420,42.8014,5.9826,13.2984,4.59957,2453.649,38.4910
2023-10-27T14:51:49,2420,42.8014,5.9826,13.2978,4.59957,2453.672,38.4915
2023-10-27T14:54:49,2420,42.8014,5.9826,13.2982,4.59954,2453.672,38.4909
2023-10-27T14:57:49,2420,42.8014,5.9826,13.2978,4.59958,2453.627,38.4917
2023-10-27T15:00:50,2420,42.8014,5.9826,13.2980,4.59954,2453.695,38.4911
2023-10-27T15:03:49,2420,42.8014,5.9826,13.2982,4.59952,2453.695,38.4907
2023-10-27T15:06:49,2420,42.8014,5.9826,13.2980,4.59959,2453.732,38.4915
2023-10-27T15:09:49,2420,42.8014,5.9826,13.2981,4.59949,2453.717,38.4905
2023-10-27T15:12:49,2420,42.8014,5.9826,13.2992,4.59947,2453.695,38.4892
2023-10-27T15:15:49,2420,42.8014,5.9826,13.2985,4.59954,2453.695,38.4906
2023-10-27T15:18:49,2420,42.8014,5.9826,13.2983,4.59954,2453.695,38.4908
2023-10-27T15:21:49,2420,42.8014,5.9826,13.2981,4.59955,2453.672,38.4911
2023-10-27T15:24:49,2420,42.8014,5.9826,13.2987,4.59952,2453.702,38.4902
2023-10-27T15:27:49,2420,42.8014,5.9826,13.2981,4.59957,2453.717,38.4912
2023-10-27T15:30:50,2420,42.8014,5.9826,13.2986,4.59948,2453.695,38.4899
2023-10-27T15:33:49,2420,42.8014,5.9826,13.2982,4.59948,2453.695,38.4904
2023-10-27T15:36:49,2420,42.8014,5.9826,13.2980,4.59951,2453.702,38.4908
2023-10-27T15:39:49,2420,42.8014,5.9826,13.2979,4.59954,2453.717,38.4912
2023-10-27T15:42:49,2420,42.8014,5.9826,13.2982,4.59954,2453.717,38.4910
2023-10-27T15:45:49,2420,42.8014,5.9826,13.2988,4.59959,2453.740,38.4908
2023-10-27T15:48:49,2420,42.8014,5.9826,13.2982,4.59961,2453.717,38.4916
2023-10-27T15:51:49,2420,42.8014,5.9826,13.2982,4.59955,2453.762,38.4910
2023-10-27T15:54:49,2420,42.8014,5.9826,13.2978,4.59951,2453.717,38.4910
2023-10-27T15:57:49,2420,42.8014,5.9826,13.2979,4.59951,2453.717,38.4908
2023-10-27T16:00:49,2420,42.8014,5.9826,13.2989,4.59948,2453.740,38.4896
2023-10-27T16:03:49,2420,42.8014,5.9826,13.2986,4.59962,2453.762,38.4912